owner,sensor,date,latitude,longitude,relative_humidity,qcFlag 
DISL,ioos:station:DISL:PPTA:1,2013-05-01T00:00:00Z,30.2791,-87.5561,86.3,1111122 
DISL,ioos:station:DISL:PPTA:1,2013-05-01T00:30:00Z,30.2791,-87.5561,85.4,1111122 
DISL,ioos:station:DISL:PPTA:1,2013-05-01T01:00:00Z,30.2791,-87.5561,84.7,1111122 
DISL,ioos:station:DISL:PPTA:1,2013-05-01T01:30:00Z,30.2791,-87.5561,83.9,1111122 
DISL,ioos:station:DISL:PPTA:1,2013-05-01T02:00:00Z,30.2791,-87.5561,82.8,1111122 
DISL,ioos:station:DISL:PPTA:1,2013-05-01T02:30:00Z,30.2791,-87.5561,83.5,1111122 
DISL,ioos:station:DISL:PPTA:1,2013-05-01T03:00:00Z,30.2791,-87.5561,85.7,1111122 
DISL,ioos:station:DISL:PPTA:1,2013-05-01T03:30:00Z,30.2791,-87.5561,86.4,1111122 
DISL,ioos:station:DISL:PPTA:1,2013-05-01T04:00:00Z,30.2791,-87.5561,88.3,1111122 
DISL,ioos:station:DISL:PPTA:1,2013-05-01T04:30:00Z,30.2791,-87.5561,90.1,1111122 
DISL,ioos:station:DISL:PPTA:1,2013-05-01T05:00:00Z,30.2791,-87.5561,91.6,1111122 
DISL,ioos:station:DISL:PPTA:1,2013-05-01T05:30:00Z,30.2791,-87.5561,89.2,1111122 
DISL,ioos:station:DISL:PPTA:1,2013-05-01T06:00:00Z,30.2791,-87.5561,84.2,1111122 
DISL,ioos:station:DISL:PPTA:1,2013-05-01T06:30:00Z,30.2791,-87.5561,85.2,1111122 
DISL,ioos:station:DISL:PPTA:1,2013-05-01T07:00:00Z,30.2791,-87.5561,86.8,1111122 
DISL,ioos:station:DISL:PPTA:1,2013-05-01T07:30:00Z,30.2791,-87.5561,88.3,1111122 
DISL,ioos:station:DISL:PPTA:1,2013-05-01T08:00:00Z,30.2791,-87.5561,88.7,1111122 
DISL,ioos:station:DISL:PPTA:1,2013-05-01T08:30:00Z,30.2791,-87.5561,84.2,1111122 
DISL,ioos:station:DISL:PPTA:1,2013-05-01T09:00:00Z,30.2791,-87.5561,85.4,1111122 
DISL,ioos:station:DISL:PPTA:1,2013-05-01T09:30:00Z,30.2791,-87.5561,82.7,1111122 
DISL,ioos:station:DISL:PPTA:1,2013-05-01T10:00:00Z,30.2791,-87.5561,82.9,1111122 
DISL,ioos:station:DISL:PPTA:1,2013-05-01T10:30:00Z,30.2791,-87.5561,84.4,1111122 
DISL,ioos:station:DISL:PPTA:1,2013-05-01T11:00:00Z,30.2791,-87.5561,86.2,1111122 
DISL,ioos:station:DISL:PPTA:1,2013-05-01T11:30:00Z,30.2791,-87.5561,87.1,1111122 
DISL,ioos:station:DISL:PPTA:1,2013-05-01T12:00:00Z,30.2791,-87.5561,85.9,1111122 
DISL,ioos:station:DISL:PPTA:1,2013-05-01T12:30:00Z,30.2791,-87.5561,87.3,1111122 
DISL,ioos:station:DISL:PPTA:1,2013-05-01T13:00:00Z,30.2791,-87.5561,87.0,1111122 
DISL,ioos:station:DISL:PPTA:1,2013-05-01T13:30:00Z,30.2791,-87.5561,87.6,1111122 
DISL,ioos:station:DISL:PPTA:1,2013-05-01T14:00:00Z,30.2791,-87.5561,86.9,1111122 
DISL,ioos:station:DISL:PPTA:1,2013-05-01T14:30:00Z,30.2791,-87.5561,85.9,1111122 
DISL,ioos:station:DISL:PPTA:1,2013-05-01T15:00:00Z,30.2791,-87.5561,85.0,1111122 
DISL,ioos:station:DISL:PPTA:1,2013-05-01T15:30:00Z,30.2791,-87.5561,85.5,1111122 
DISL,ioos:station:DISL:PPTA:1,2013-05-01T16:00:00Z,30.2791,-87.5561,85.1,1111122 
DISL,ioos:station:DISL:PPTA:1,2013-05-01T16:30:00Z,30.2791,-87.5561,86.5,1111122 
DISL,ioos:station:DISL:PPTA:1,2013-05-01T17:00:00Z,30.2791,-87.5561,88.9,1111122 
DISL,ioos:station:DISL:PPTA:1,2013-05-01T17:30:00Z,30.2791,-87.5561,88.1,1111122 
DISL,ioos:station:DISL:PPTA:1,2013-05-01T18:00:00Z,30.2791,-87.5561,87.1,1111122 
DISL,ioos:station:DISL:PPTA:1,2013-05-01T18:30:00Z,30.2791,-87.5561,84.5,1111122 
DISL,ioos:station:DISL:PPTA:1,2013-05-01T19:00:00Z,30.2791,-87.5561,82.1,1111122 
DISL,ioos:station:DISL:PPTA:1,2013-05-01T19:30:00Z,30.2791,-87.5561,83.1,1111122 
DISL,ioos:station:DISL:PPTA:1,2013-05-01T20:00:00Z,30.2791,-87.5561,83.1,1111122 
DISL,ioos:station:DISL:PPTA:1,2013-05-01T20:30:00Z,30.2791,-87.5561,83.9,1111122 
DISL,ioos:station:DISL:PPTA:1,2013-05-01T21:00:00Z,30.2791,-87.5561,84.4,1111122 
DISL,ioos:station:DISL:PPTA:1,2013-05-01T21:30:00Z,30.2791,-87.5561,85.8,1111122 
DISL,ioos:station:DISL:PPTA:1,2013-05-01T22:00:00Z,30.2791,-87.5561,87.6,1111122 
DISL,ioos:station:DISL:PPTA:1,2013-05-01T22:30:00Z,30.2791,-87.5561,86.1,1111122 
DISL,ioos:station:DISL:PPTA:1,2013-05-01T23:00:00Z,30.2791,-87.5561,85.5,1111122 
DISL,ioos:station:DISL:PPTA:1,2013-05-01T23:30:00Z,30.2791,-87.5561,86.4,1111122 
DISL,ioos:station:DISL:PPTA:1,2013-05-02T00:00:00Z,30.2791,-87.5561,87.3,1111122 
DISL,ioos:station:DISL:PPTA:1,2013-05-02T00:30:00Z,30.2791,-87.5561,87.1,1111122 
DISL,ioos:station:DISL:PPTA:1,2013-05-02T01:00:00Z,30.2791,-87.5561,85.7,1111122 
DISL,ioos:station:DISL:PPTA:1,2013-05-02T01:30:00Z,30.2791,-87.5561,85.9,1111122 
DISL,ioos:station:DISL:PPTA:1,2013-05-02T02:00:00Z,30.2791,-87.5561,85.5,1111122 
DISL,ioos:station:DISL:PPTA:1,2013-05-02T02:30:00Z,30.2791,-87.5561,84.7,1111122 
DISL,ioos:station:DISL:PPTA:1,2013-05-02T03:00:00Z,30.2791,-87.5561,83.9,1111122 
DISL,ioos:station:DISL:PPTA:1,2013-05-02T03:30:00Z,30.2791,-87.5561,83.3,1111122 
DISL,ioos:station:DISL:PPTA:1,2013-05-02T04:00:00Z,30.2791,-87.5561,83.7,1111122 
DISL,ioos:station:DISL:PPTA:1,2013-05-02T04:30:00Z,30.2791,-87.5561,83.8,1111122 
DISL,ioos:station:DISL:PPTA:1,2013-05-02T05:00:00Z,30.2791,-87.5561,83.8,1111122 
DISL,ioos:station:DISL:PPTA:1,2013-05-02T05:30:00Z,30.2791,-87.5561,83.9,1111122 
DISL,ioos:station:DISL:PPTA:1,2013-05-02T06:00:00Z,30.2791,-87.5561,84.5,1111122 
DISL,ioos:station:DISL:PPTA:1,2013-05-02T06:30:00Z,30.2791,-87.5561,84.0,1111122 
DISL,ioos:station:DISL:PPTA:1,2013-05-02T07:00:00Z,30.2791,-87.5561,86.0,1111122 
DISL,ioos:station:DISL:PPTA:1,2013-05-02T07:30:00Z,30.2791,-87.5561,86.2,1111122 
DISL,ioos:station:DISL:PPTA:1,2013-05-02T08:00:00Z,30.2791,-87.5561,88.3,1111122 
DISL,ioos:station:DISL:PPTA:1,2013-05-02T08:30:00Z,30.2791,-87.5561,86.5,1111122 
DISL,ioos:station:DISL:PPTA:1,2013-05-02T09:00:00Z,30.2791,-87.5561,86.0,1111122 
DISL,ioos:station:DISL:PPTA:1,2013-05-02T09:30:00Z,30.2791,-87.5561,87.7,1111122 
DISL,ioos:station:DISL:PPTA:1,2013-05-02T10:00:00Z,30.2791,-87.5561,86.2,1111122 
DISL,ioos:station:DISL:PPTA:1,2013-05-02T10:30:00Z,30.2791,-87.5561,90.2,1111122 
DISL,ioos:station:DISL:PPTA:1,2013-05-02T11:00:00Z,30.2791,-87.5561,91.6,1111122 
DISL,ioos:station:DISL:PPTA:1,2013-05-02T11:30:00Z,30.2791,-87.5561,92.2,1111122 
DISL,ioos:station:DISL:PPTA:1,2013-05-02T12:00:00Z,30.2791,-87.5561,92.6,1111122 
DISL,ioos:station:DISL:PPTA:1,2013-05-02T12:30:00Z,30.2791,-87.5561,92.8,1111122 
DISL,ioos:station:DISL:PPTA:1,2013-05-02T13:00:00Z,30.2791,-87.5561,92.8,1111122 
DISL,ioos:station:DISL:PPTA:1,2013-05-02T13:30:00Z,30.2791,-87.5561,92.7,1111122 
DISL,ioos:station:DISL:PPTA:1,2013-05-02T14:00:00Z,30.2791,-87.5561,92.3,1111122 
DISL,ioos:station:DISL:PPTA:1,2013-05-02T14:30:00Z,30.2791,-87.5561,91.3,1111122 
DISL,ioos:station:DISL:PPTA:1,2013-05-02T15:00:00Z,30.2791,-87.5561,91.3,1111122 
DISL,ioos:station:DISL:PPTA:1,2013-05-02T15:30:00Z,30.2791,-87.5561,89.8,1111122 
DISL,ioos:station:DISL:PPTA:1,2013-05-02T16:00:00Z,30.2791,-87.5561,88.4,1111122 
DISL,ioos:station:DISL:PPTA:1,2013-05-02T16:30:00Z,30.2791,-87.5561,85.8,1111122 
DISL,ioos:station:DISL:PPTA:1,2013-05-02T17:00:00Z,30.2791,-87.5561,83.4,1111122 
DISL,ioos:station:DISL:PPTA:1,2013-05-02T17:30:00Z,30.2791,-87.5561,81.6,1111122 
DISL,ioos:station:DISL:PPTA:1,2013-05-02T18:00:00Z,30.2791,-87.5561,79.66,1111122 
DISL,ioos:station:DISL:PPTA:1,2013-05-02T18:30:00Z,30.2791,-87.5561,79.76,1111122 
DISL,ioos:station:DISL:PPTA:1,2013-05-02T19:00:00Z,30.2791,-87.5561,77.44,1111122 
DISL,ioos:station:DISL:PPTA:1,2013-05-02T19:30:00Z,30.2791,-87.5561,77.85,1111122 
DISL,ioos:station:DISL:PPTA:1,2013-05-02T20:00:00Z,30.2791,-87.5561,78.21,1111122 
DISL,ioos:station:DISL:PPTA:1,2013-05-02T20:30:00Z,30.2791,-87.5561,77.15,1111122 
DISL,ioos:station:DISL:PPTA:1,2013-05-02T21:00:00Z,30.2791,-87.5561,77.46,1111122 
DISL,ioos:station:DISL:PPTA:1,2013-05-02T21:30:00Z,30.2791,-87.5561,76.27,1111122 
DISL,ioos:station:DISL:PPTA:1,2013-05-02T22:00:00Z,30.2791,-87.5561,77.71,1111122 
DISL,ioos:station:DISL:PPTA:1,2013-05-02T22:30:00Z,30.2791,-87.5561,78.32,1111122 
DISL,ioos:station:DISL:PPTA:1,2013-05-02T23:00:00Z,30.2791,-87.5561,77.15,1111122 
DISL,ioos:station:DISL:PPTA:1,2013-05-02T23:30:00Z,30.2791,-87.5561,76.33,1111122 
DISL,ioos:station:DISL:PPTA:1,2013-05-03T00:00:00Z,30.2791,-87.5561,75.32,1111122 
DISL,ioos:station:DISL:PPTA:1,2013-05-03T00:30:00Z,30.2791,-87.5561,77.44,1111122 
DISL,ioos:station:DISL:PPTA:1,2013-05-03T01:00:00Z,30.2791,-87.5561,79.56,1111122 
DISL,ioos:station:DISL:PPTA:1,2013-05-03T01:30:00Z,30.2791,-87.5561,83.8,1111122 
DISL,ioos:station:DISL:PPTA:1,2013-05-03T02:00:00Z,30.2791,-87.5561,86.3,1111122 
DISL,ioos:station:DISL:PPTA:1,2013-05-03T02:30:00Z,30.2791,-87.5561,85.2,1111122 
DISL,ioos:station:DISL:PPTA:1,2013-05-03T03:00:00Z,30.2791,-87.5561,86.4,1111122 
DISL,ioos:station:DISL:PPTA:1,2013-05-03T03:30:00Z,30.2791,-87.5561,84.0,1111122 
DISL,ioos:station:DISL:PPTA:1,2013-05-03T04:00:00Z,30.2791,-87.5561,82.0,1111122 
DISL,ioos:station:DISL:PPTA:1,2013-05-03T04:30:00Z,30.2791,-87.5561,82.2,1111122 
DISL,ioos:station:DISL:PPTA:1,2013-05-03T05:00:00Z,30.2791,-87.5561,81.3,1111122 
DISL,ioos:station:DISL:PPTA:1,2013-05-03T05:30:00Z,30.2791,-87.5561,78.5,1111122 
DISL,ioos:station:DISL:PPTA:1,2013-05-03T06:00:00Z,30.2791,-87.5561,77.92,1111122 
DISL,ioos:station:DISL:PPTA:1,2013-05-03T06:30:00Z,30.2791,-87.5561,79.9,1111122 
DISL,ioos:station:DISL:PPTA:1,2013-05-03T07:00:00Z,30.2791,-87.5561,81.2,1111122 
DISL,ioos:station:DISL:PPTA:1,2013-05-03T07:30:00Z,30.2791,-87.5561,79.95,1111122 
DISL,ioos:station:DISL:PPTA:1,2013-05-03T08:00:00Z,30.2791,-87.5561,80.3,1111122 
DISL,ioos:station:DISL:PPTA:1,2013-05-03T08:30:00Z,30.2791,-87.5561,79.71,1111122 
DISL,ioos:station:DISL:PPTA:1,2013-05-03T09:00:00Z,30.2791,-87.5561,81.8,1111122 
DISL,ioos:station:DISL:PPTA:1,2013-05-03T09:30:00Z,30.2791,-87.5561,84.0,1111122 
DISL,ioos:station:DISL:PPTA:1,2013-05-03T10:00:00Z,30.2791,-87.5561,83.9,1111122 
DISL,ioos:station:DISL:PPTA:1,2013-05-03T10:30:00Z,30.2791,-87.5561,84.8,1111122 
DISL,ioos:station:DISL:PPTA:1,2013-05-03T11:00:00Z,30.2791,-87.5561,83.3,1111122 
DISL,ioos:station:DISL:PPTA:1,2013-05-03T11:30:00Z,30.2791,-87.5561,84.2,1111122 
DISL,ioos:station:DISL:PPTA:1,2013-05-03T12:00:00Z,30.2791,-87.5561,82.6,1111122 
DISL,ioos:station:DISL:PPTA:1,2013-05-03T12:30:00Z,30.2791,-87.5561,82.5,1111122 
DISL,ioos:station:DISL:PPTA:1,2013-05-03T13:00:00Z,30.2791,-87.5561,81.3,1111122 
DISL,ioos:station:DISL:PPTA:1,2013-05-03T13:30:00Z,30.2791,-87.5561,78.93,1111122 
DISL,ioos:station:DISL:PPTA:1,2013-05-03T14:00:00Z,30.2791,-87.5561,78.76,1111122 
DISL,ioos:station:DISL:PPTA:1,2013-05-03T14:30:00Z,30.2791,-87.5561,79.0,1111122 
DISL,ioos:station:DISL:PPTA:1,2013-05-03T15:00:00Z,30.2791,-87.5561,76.85,1111122 
DISL,ioos:station:DISL:PPTA:1,2013-05-03T15:30:00Z,30.2791,-87.5561,73.55,1111122 
DISL,ioos:station:DISL:PPTA:1,2013-05-03T16:00:00Z,30.2791,-87.5561,75.87,1111122 
DISL,ioos:station:DISL:PPTA:1,2013-05-03T16:30:00Z,30.2791,-87.5561,79.45,1111122 
DISL,ioos:station:DISL:PPTA:1,2013-05-03T17:00:00Z,30.2791,-87.5561,77.85,1111122 
DISL,ioos:station:DISL:PPTA:1,2013-05-03T17:30:00Z,30.2791,-87.5561,75.77,1111122 
DISL,ioos:station:DISL:PPTA:1,2013-05-03T18:00:00Z,30.2791,-87.5561,75.15,1111122 
DISL,ioos:station:DISL:PPTA:1,2013-05-03T18:30:00Z,30.2791,-87.5561,72.22,1111122 
DISL,ioos:station:DISL:PPTA:1,2013-05-03T19:00:00Z,30.2791,-87.5561,72.05,1111122 
DISL,ioos:station:DISL:PPTA:1,2013-05-03T19:30:00Z,30.2791,-87.5561,76.09,1111122 
DISL,ioos:station:DISL:PPTA:1,2013-05-03T20:00:00Z,30.2791,-87.5561,76.96,1111122 
DISL,ioos:station:DISL:PPTA:1,2013-05-03T20:30:00Z,30.2791,-87.5561,75.63,1111122 
DISL,ioos:station:DISL:PPTA:1,2013-05-03T21:00:00Z,30.2791,-87.5561,80.2,1111122 
DISL,ioos:station:DISL:PPTA:1,2013-05-03T21:30:00Z,30.2791,-87.5561,79.66,1111122 
DISL,ioos:station:DISL:PPTA:1,2013-05-03T22:00:00Z,30.2791,-87.5561,84.9,1111122 
DISL,ioos:station:DISL:PPTA:1,2013-05-03T22:30:00Z,30.2791,-87.5561,85.3,1111122 
DISL,ioos:station:DISL:PPTA:1,2013-05-03T23:00:00Z,30.2791,-87.5561,87.7,1111122 
DISL,ioos:station:DISL:PPTA:1,2013-05-03T23:30:00Z,30.2791,-87.5561,86.7,1111122 
DISL,ioos:station:DISL:PPTA:1,2013-05-04T00:00:00Z,30.2791,-87.5561,88.1,1111122 
DISL,ioos:station:DISL:PPTA:1,2013-05-04T00:30:00Z,30.2791,-87.5561,89.6,1111122 
DISL,ioos:station:DISL:PPTA:1,2013-05-04T01:00:00Z,30.2791,-87.5561,90.6,1111122 
DISL,ioos:station:DISL:PPTA:1,2013-05-04T01:30:00Z,30.2791,-87.5561,92.1,1111122 
DISL,ioos:station:DISL:PPTA:1,2013-05-04T02:00:00Z,30.2791,-87.5561,93.2,1111122 
DISL,ioos:station:DISL:PPTA:1,2013-05-04T02:30:00Z,30.2791,-87.5561,92.3,1111122 
DISL,ioos:station:DISL:PPTA:1,2013-05-04T03:00:00Z,30.2791,-87.5561,93.0,1111122 
DISL,ioos:station:DISL:PPTA:1,2013-05-04T03:30:00Z,30.2791,-87.5561,93.0,1111122 
DISL,ioos:station:DISL:PPTA:1,2013-05-04T04:00:00Z,30.2791,-87.5561,92.2,1111122 
DISL,ioos:station:DISL:PPTA:1,2013-05-04T04:30:00Z,30.2791,-87.5561,91.6,1111122 
DISL,ioos:station:DISL:PPTA:1,2013-05-04T05:00:00Z,30.2791,-87.5561,88.8,1111122 
DISL,ioos:station:DISL:PPTA:1,2013-05-04T05:30:00Z,30.2791,-87.5561,91.1,1111122 
DISL,ioos:station:DISL:PPTA:1,2013-05-04T06:00:00Z,30.2791,-87.5561,91.2,1111122 
DISL,ioos:station:DISL:PPTA:1,2013-05-04T06:30:00Z,30.2791,-87.5561,89.5,1111122 
DISL,ioos:station:DISL:PPTA:1,2013-05-04T07:00:00Z,30.2791,-87.5561,87.0,1111122 
DISL,ioos:station:DISL:PPTA:1,2013-05-04T07:30:00Z,30.2791,-87.5561,88.4,1111122 
DISL,ioos:station:DISL:PPTA:1,2013-05-04T08:00:00Z,30.2791,-87.5561,87.0,1111122 
DISL,ioos:station:DISL:PPTA:1,2013-05-04T08:30:00Z,30.2791,-87.5561,86.3,1111122 
DISL,ioos:station:DISL:PPTA:1,2013-05-04T09:00:00Z,30.2791,-87.5561,80.7,1111122 
DISL,ioos:station:DISL:PPTA:1,2013-05-04T09:30:00Z,30.2791,-87.5561,78.94,1111122 
DISL,ioos:station:DISL:PPTA:1,2013-05-04T10:00:00Z,30.2791,-87.5561,74.12,1111122 
DISL,ioos:station:DISL:PPTA:1,2013-05-04T10:30:00Z,30.2791,-87.5561,78.43,1111122 
DISL,ioos:station:DISL:PPTA:1,2013-05-04T11:00:00Z,30.2791,-87.5561,73.88,1111122 
DISL,ioos:station:DISL:PPTA:1,2013-05-04T11:30:00Z,30.2791,-87.5561,68.79,1111122 
DISL,ioos:station:DISL:PPTA:1,2013-05-04T12:00:00Z,30.2791,-87.5561,67.42,1111122 
DISL,ioos:station:DISL:PPTA:1,2013-05-04T12:30:00Z,30.2791,-87.5561,65.13,1111122 
DISL,ioos:station:DISL:PPTA:1,2013-05-04T13:00:00Z,30.2791,-87.5561,67.58,1111122 
DISL,ioos:station:DISL:PPTA:1,2013-05-04T13:30:00Z,30.2791,-87.5561,61.2,1111122 
DISL,ioos:station:DISL:PPTA:1,2013-05-04T14:00:00Z,30.2791,-87.5561,58.18,1111122 
DISL,ioos:station:DISL:PPTA:1,2013-05-04T14:30:00Z,30.2791,-87.5561,49.08,1111122 
DISL,ioos:station:DISL:PPTA:1,2013-05-04T15:00:00Z,30.2791,-87.5561,47.23,1111122 
DISL,ioos:station:DISL:PPTA:1,2013-05-04T15:30:00Z,30.2791,-87.5561,40.15,1111122 
DISL,ioos:station:DISL:PPTA:1,2013-05-04T16:00:00Z,30.2791,-87.5561,42.36,1111122 
DISL,ioos:station:DISL:PPTA:1,2013-05-04T16:30:00Z,30.2791,-87.5561,36.27,1111122 
DISL,ioos:station:DISL:PPTA:1,2013-05-04T17:00:00Z,30.2791,-87.5561,35.11,1111122 
DISL,ioos:station:DISL:PPTA:1,2013-05-04T17:30:00Z,30.2791,-87.5561,31.97,1111122 
DISL,ioos:station:DISL:PPTA:1,2013-05-04T18:00:00Z,30.2791,-87.5561,32.55,1111122 
DISL,ioos:station:DISL:PPTA:1,2013-05-04T18:30:00Z,30.2791,-87.5561,32.86,1111122 
DISL,ioos:station:DISL:PPTA:1,2013-05-04T19:00:00Z,30.2791,-87.5561,30.87,1111122 
DISL,ioos:station:DISL:PPTA:1,2013-05-04T19:30:00Z,30.2791,-87.5561,29.58,1111122 
DISL,ioos:station:DISL:PPTA:1,2013-05-04T20:00:00Z,30.2791,-87.5561,32.71,1111122 
DISL,ioos:station:DISL:PPTA:1,2013-05-04T20:30:00Z,30.2791,-87.5561,27.18,1111122 
DISL,ioos:station:DISL:PPTA:1,2013-05-04T21:00:00Z,30.2791,-87.5561,30.93,1111122 
DISL,ioos:station:DISL:PPTA:1,2013-05-04T21:30:00Z,30.2791,-87.5561,31.51,1111122 
DISL,ioos:station:DISL:PPTA:1,2013-05-04T22:00:00Z,30.2791,-87.5561,26.84,1111122 
DISL,ioos:station:DISL:PPTA:1,2013-05-04T22:30:00Z,30.2791,-87.5561,27.25,1111122 
DISL,ioos:station:DISL:PPTA:1,2013-05-04T23:00:00Z,30.2791,-87.5561,26.39,1111122 
DISL,ioos:station:DISL:PPTA:1,2013-05-04T23:30:00Z,30.2791,-87.5561,27.38,1111122 
DISL,ioos:station:DISL:PPTA:1,2013-05-05T00:00:00Z,30.2791,-87.5561,29.77,1111122 
DISL,ioos:station:DISL:PPTA:1,2013-05-05T00:30:00Z,30.2791,-87.5561,35.59,1111122 
DISL,ioos:station:DISL:PPTA:1,2013-05-05T01:00:00Z,30.2791,-87.5561,40.44,1111122 
DISL,ioos:station:DISL:PPTA:1,2013-05-05T01:30:00Z,30.2791,-87.5561,43.45,1111122 
DISL,ioos:station:DISL:PPTA:1,2013-05-05T02:00:00Z,30.2791,-87.5561,45.75,1111122 
DISL,ioos:station:DISL:PPTA:1,2013-05-05T02:30:00Z,30.2791,-87.5561,49.44,1111122 
DISL,ioos:station:DISL:PPTA:1,2013-05-05T03:00:00Z,30.2791,-87.5561,53.69,1111122 
DISL,ioos:station:DISL:PPTA:1,2013-05-05T03:30:00Z,30.2791,-87.5561,58.71,1111122 
DISL,ioos:station:DISL:PPTA:1,2013-05-05T04:00:00Z,30.2791,-87.5561,69.48,1111122 
DISL,ioos:station:DISL:PPTA:1,2013-05-05T04:30:00Z,30.2791,-87.5561,71.81,1111122 
DISL,ioos:station:DISL:PPTA:1,2013-05-05T05:00:00Z,30.2791,-87.5561,70.63,1111122 
DISL,ioos:station:DISL:PPTA:1,2013-05-05T05:30:00Z,30.2791,-87.5561,74.39,1111122 
DISL,ioos:station:DISL:PPTA:1,2013-05-05T06:00:00Z,30.2791,-87.5561,67.49,1111122 
DISL,ioos:station:DISL:PPTA:1,2013-05-05T06:30:00Z,30.2791,-87.5561,78.26,1111122 
DISL,ioos:station:DISL:PPTA:1,2013-05-05T07:00:00Z,30.2791,-87.5561,78.97,1111122 
DISL,ioos:station:DISL:PPTA:1,2013-05-05T07:30:00Z,30.2791,-87.5561,78.5,1111122 
DISL,ioos:station:DISL:PPTA:1,2013-05-05T08:00:00Z,30.2791,-87.5561,80.1,1111122 
DISL,ioos:station:DISL:PPTA:1,2013-05-05T08:30:00Z,30.2791,-87.5561,70.19,1111122 
DISL,ioos:station:DISL:PPTA:1,2013-05-05T09:00:00Z,30.2791,-87.5561,77.33,1111122 
DISL,ioos:station:DISL:PPTA:1,2013-05-05T09:30:00Z,30.2791,-87.5561,80.2,1111122 
DISL,ioos:station:DISL:PPTA:1,2013-05-05T10:00:00Z,30.2791,-87.5561,72.88,1111122 
DISL,ioos:station:DISL:PPTA:1,2013-05-05T10:30:00Z,30.2791,-87.5561,70.56,1111122 
DISL,ioos:station:DISL:PPTA:1,2013-05-05T11:00:00Z,30.2791,-87.5561,68.27,1111122 
DISL,ioos:station:DISL:PPTA:1,2013-05-05T11:30:00Z,30.2791,-87.5561,67.38,1111122 
DISL,ioos:station:DISL:PPTA:1,2013-05-05T12:00:00Z,30.2791,-87.5561,63.6,1111122 
DISL,ioos:station:DISL:PPTA:1,2013-05-05T12:30:00Z,30.2791,-87.5561,63.55,1111122 
DISL,ioos:station:DISL:PPTA:1,2013-05-05T13:00:00Z,30.2791,-87.5561,63.94,1111122 
DISL,ioos:station:DISL:PPTA:1,2013-05-05T13:30:00Z,30.2791,-87.5561,63.68,1111122 
DISL,ioos:station:DISL:PPTA:1,2013-05-05T14:00:00Z,30.2791,-87.5561,68.32,1111122 
DISL,ioos:station:DISL:PPTA:1,2013-05-05T14:30:00Z,30.2791,-87.5561,68.38,1111122 
DISL,ioos:station:DISL:PPTA:1,2013-05-05T15:00:00Z,30.2791,-87.5561,63.99,1111122 
DISL,ioos:station:DISL:PPTA:1,2013-05-05T15:30:00Z,30.2791,-87.5561,60.63,1111122 
DISL,ioos:station:DISL:PPTA:1,2013-05-05T16:00:00Z,30.2791,-87.5561,51.83,1111122 
DISL,ioos:station:DISL:PPTA:1,2013-05-05T16:30:00Z,30.2791,-87.5561,40.33,1111122 
DISL,ioos:station:DISL:PPTA:1,2013-05-05T17:00:00Z,30.2791,-87.5561,36.68,1111122 
DISL,ioos:station:DISL:PPTA:1,2013-05-05T17:30:00Z,30.2791,-87.5561,35.31,1111122 
DISL,ioos:station:DISL:PPTA:1,2013-05-05T18:00:00Z,30.2791,-87.5561,39.75,1111122 
DISL,ioos:station:DISL:PPTA:1,2013-05-05T18:30:00Z,30.2791,-87.5561,42.03,1111122 
DISL,ioos:station:DISL:PPTA:1,2013-05-05T19:00:00Z,30.2791,-87.5561,46.74,1111122 
DISL,ioos:station:DISL:PPTA:1,2013-05-05T19:30:00Z,30.2791,-87.5561,49.85,1111122 
DISL,ioos:station:DISL:PPTA:1,2013-05-05T20:00:00Z,30.2791,-87.5561,42.28,1111122 
DISL,ioos:station:DISL:PPTA:1,2013-05-05T20:30:00Z,30.2791,-87.5561,38.26,1111122 
DISL,ioos:station:DISL:PPTA:1,2013-05-05T21:00:00Z,30.2791,-87.5561,39.15,1111122 
DISL,ioos:station:DISL:PPTA:1,2013-05-05T21:30:00Z,30.2791,-87.5561,37.93,1111122 
DISL,ioos:station:DISL:PPTA:1,2013-05-05T22:00:00Z,30.2791,-87.5561,35.88,1111122 
DISL,ioos:station:DISL:PPTA:1,2013-05-05T22:30:00Z,30.2791,-87.5561,36.78,1111122 
DISL,ioos:station:DISL:PPTA:1,2013-05-05T23:00:00Z,30.2791,-87.5561,38.42,1111122 
DISL,ioos:station:DISL:PPTA:1,2013-05-05T23:30:00Z,30.2791,-87.5561,41.36,1111122 
DISL,ioos:station:DISL:PPTA:1,2013-05-06T00:00:00Z,30.2791,-87.5561,45.49,1111122 
DISL,ioos:station:DISL:PPTA:1,2013-05-06T00:30:00Z,30.2791,-87.5561,44.06,1111122 
DISL,ioos:station:DISL:PPTA:1,2013-05-06T01:00:00Z,30.2791,-87.5561,47.15,1111122 
DISL,ioos:station:DISL:PPTA:1,2013-05-06T01:30:00Z,30.2791,-87.5561,49.95,1111122 
DISL,ioos:station:DISL:PPTA:1,2013-05-06T02:00:00Z,30.2791,-87.5561,50.61,1111122 
DISL,ioos:station:DISL:PPTA:1,2013-05-06T02:30:00Z,30.2791,-87.5561,58.54,1111122 
DISL,ioos:station:DISL:PPTA:1,2013-05-06T03:00:00Z,30.2791,-87.5561,56.53,1111122 
DISL,ioos:station:DISL:PPTA:1,2013-05-06T03:30:00Z,30.2791,-87.5561,57.7,1111122 
DISL,ioos:station:DISL:PPTA:1,2013-05-06T04:00:00Z,30.2791,-87.5561,59.2,1111122 
DISL,ioos:station:DISL:PPTA:1,2013-05-06T04:30:00Z,30.2791,-87.5561,61.6,1111122 
DISL,ioos:station:DISL:PPTA:1,2013-05-06T05:00:00Z,30.2791,-87.5561,65.36,1111122 
DISL,ioos:station:DISL:PPTA:1,2013-05-06T05:30:00Z,30.2791,-87.5561,64.07,1111122 
DISL,ioos:station:DISL:PPTA:1,2013-05-06T06:00:00Z,30.2791,-87.5561,66.39,1111122 
DISL,ioos:station:DISL:PPTA:1,2013-05-06T06:30:00Z,30.2791,-87.5561,70.67,1111122 
DISL,ioos:station:DISL:PPTA:1,2013-05-06T07:00:00Z,30.2791,-87.5561,70.05,1111122 
DISL,ioos:station:DISL:PPTA:1,2013-05-06T07:30:00Z,30.2791,-87.5561,73.55,1111122 
DISL,ioos:station:DISL:PPTA:1,2013-05-06T08:00:00Z,30.2791,-87.5561,74.82,1111122 
DISL,ioos:station:DISL:PPTA:1,2013-05-06T08:30:00Z,30.2791,-87.5561,76.06,1111122 
DISL,ioos:station:DISL:PPTA:1,2013-05-06T09:00:00Z,30.2791,-87.5561,74.21,1111122 
DISL,ioos:station:DISL:PPTA:1,2013-05-06T09:30:00Z,30.2791,-87.5561,72.64,1111122 
DISL,ioos:station:DISL:PPTA:1,2013-05-06T10:00:00Z,30.2791,-87.5561,74.01,1111122 
DISL,ioos:station:DISL:PPTA:1,2013-05-06T10:30:00Z,30.2791,-87.5561,72.91,1111122 
DISL,ioos:station:DISL:PPTA:1,2013-05-06T11:00:00Z,30.2791,-87.5561,75.03,1111122 
DISL,ioos:station:DISL:PPTA:1,2013-05-06T11:30:00Z,30.2791,-87.5561,72.23,1111122 
DISL,ioos:station:DISL:PPTA:1,2013-05-06T12:00:00Z,30.2791,-87.5561,69.49,1111122 
DISL,ioos:station:DISL:PPTA:1,2013-05-06T12:30:00Z,30.2791,-87.5561,63.92,1111122 
DISL,ioos:station:DISL:PPTA:1,2013-05-06T13:00:00Z,30.2791,-87.5561,60.89,1111122 
DISL,ioos:station:DISL:PPTA:1,2013-05-06T13:30:00Z,30.2791,-87.5561,50.72,1111122 
DISL,ioos:station:DISL:PPTA:1,2013-05-06T14:00:00Z,30.2791,-87.5561,49.92,1111122 
DISL,ioos:station:DISL:PPTA:1,2013-05-06T14:30:00Z,30.2791,-87.5561,48.11,1111122 
DISL,ioos:station:DISL:PPTA:1,2013-05-06T15:00:00Z,30.2791,-87.5561,47.55,1111122 
DISL,ioos:station:DISL:PPTA:1,2013-05-06T15:30:00Z,30.2791,-87.5561,45.84,1111122 
DISL,ioos:station:DISL:PPTA:1,2013-05-06T16:00:00Z,30.2791,-87.5561,47.85,1111122 
DISL,ioos:station:DISL:PPTA:1,2013-05-06T16:30:00Z,30.2791,-87.5561,42.59,1111122 
DISL,ioos:station:DISL:PPTA:1,2013-05-06T17:00:00Z,30.2791,-87.5561,44.27,1111122 
DISL,ioos:station:DISL:PPTA:1,2013-05-06T17:30:00Z,30.2791,-87.5561,47.44,1111122 
DISL,ioos:station:DISL:PPTA:1,2013-05-06T18:00:00Z,30.2791,-87.5561,50.98,1111122 
DISL,ioos:station:DISL:PPTA:1,2013-05-06T18:30:00Z,30.2791,-87.5561,54.11,1111122 
DISL,ioos:station:DISL:PPTA:1,2013-05-06T19:00:00Z,30.2791,-87.5561,51.25,1111122 
DISL,ioos:station:DISL:PPTA:1,2013-05-06T19:30:00Z,30.2791,-87.5561,53.09,1111122 
DISL,ioos:station:DISL:PPTA:1,2013-05-06T20:00:00Z,30.2791,-87.5561,50.36,1111122 
DISL,ioos:station:DISL:PPTA:1,2013-05-06T20:30:00Z,30.2791,-87.5561,53.16,1111122 
DISL,ioos:station:DISL:PPTA:1,2013-05-06T21:00:00Z,30.2791,-87.5561,48.55,1111122 
DISL,ioos:station:DISL:PPTA:1,2013-05-06T21:30:00Z,30.2791,-87.5561,52.69,1111122 
DISL,ioos:station:DISL:PPTA:1,2013-05-06T22:00:00Z,30.2791,-87.5561,50.92,1111122 
DISL,ioos:station:DISL:PPTA:1,2013-05-06T22:30:00Z,30.2791,-87.5561,53.79,1111122 
DISL,ioos:station:DISL:PPTA:1,2013-05-06T23:00:00Z,30.2791,-87.5561,52.94,1111122 
DISL,ioos:station:DISL:PPTA:1,2013-05-06T23:30:00Z,30.2791,-87.5561,56.66,1111122 
DISL,ioos:station:DISL:PPTA:1,2013-05-07T00:00:00Z,30.2791,-87.5561,56.74,1111122 
DISL,ioos:station:DISL:PPTA:1,2013-05-07T00:30:00Z,30.2791,-87.5561,60.43,1111122 